Duluth, MN

2:36 AM CST on February 26, 2017 (GMT -0600)
Sky Harbor

Weather History for KDYT - November, 2012

Change the Weather History Date:

Monday, November 26, 2012

  Actual Average Record
Temperature  
Mean Temperature 14 °F -  
Max Temperature 19 °F 34 °F 54 °F (1960)
Min Temperature 8 °F 19 °F -11 °F (1977)
Degree Days  
Heating Degree Days 52    
Moisture  
Dew Point 5 °F    
Average Humidity 68    
Maximum Humidity 73    
Minimum Humidity 54    
Precipitation  
Precipitation 0.00 in - - ()
Sea Level Pressure  
Sea Level Pressure 30.31 in    
Wind  
Wind Speed 11 mph (WSW)    
Max Wind Speed 17 mph    
Max Gust Speed 18 mph    
Visibility 10 miles    
Events      
Averages and records for this station are not official NWS values.
T = Trace of Precipitation, MM = Missing Value Source: NWS Daily Summary

Daily Weather History Graph

Daily Weather History Graph

Search for Another Location

Airport or City:

Trip Planner

Search our weather history database for the weather conditions in past years. The results will help you decide how hot, cold, wet, or windy it might be!

Date:

Astronomy

Nov. 26, 2012 Rise Set
Actual Time 7:26 AM CST 4:24 PM CST
Civil Twilight 6:52 AM CST 4:58 PM CST
Nautical Twilight 6:14 AM CST 5:36 PM CST
Astronomical Twilight 5:38 AM CST 6:12 PM CST
Moon 3:20 PM CST 5:33 AM CST
Length of Visible Light 10h 05m
Length of Day
8h 57m
Waxing Gibbous, 97% of the Moon is Illuminated
Nov 26
Waxing Gibbous
Nov 28
Full
Dec 6
Last Quarter
Dec 13
New
Dec 19
First Quarter

Hourly Weather History & Observations

Time (CST) Temp. Windchill Dew Point Humidity Pressure Visibility Wind Dir Wind Speed Gust Speed Precip Events Conditions
12:13 AM 15.8 °F 3.4 °F 5.0 °F 62% 30.16 in 10.0 mi NW 10.4 mph 16.1 mph N/A   Clear
12:33 AM 15.8 °F 2.7 °F 6.8 °F 68% 30.18 in 10.0 mi WNW 11.5 mph - N/A   Clear
12:54 AM 14.0 °F 1.2 °F 5.0 °F 67% 30.19 in 10.0 mi NW 10.4 mph 18.4 mph N/A   Clear
1:13 AM 14.0 °F 2.9 °F 5.0 °F 67% 30.19 in 10.0 mi NW 8.1 mph - N/A   Clear
1:33 AM 12.2 °F -2.5 °F 5.0 °F 73% 30.20 in 10.0 mi NW 12.7 mph - N/A   Clear
1:54 AM 12.2 °F -3.7 °F 5.0 °F 73% 30.21 in 10.0 mi NW 15.0 mph - N/A   Clear
2:13 AM 12.2 °F -3.7 °F 5.0 °F 73% 30.22 in 10.0 mi NW 15.0 mph - N/A   Clear
2:33 AM 12.2 °F -3.7 °F 5.0 °F 73% 30.23 in 10.0 mi WNW 15.0 mph - N/A   Clear
2:54 AM 12.2 °F -4.8 °F 5.0 °F 73% 30.23 in 10.0 mi NW 17.3 mph - N/A   Clear
3:13 AM 12.2 °F -4.3 °F 5.0 °F 73% 30.24 in 10.0 mi WNW 16.1 mph - N/A   Clear
3:33 AM 12.2 °F -4.3 °F 5.0 °F 73% 30.24 in 10.0 mi NW 16.1 mph - N/A   Clear
3:53 AM 12.2 °F -4.3 °F 5.0 °F 73% 30.24 in 10.0 mi NW 16.1 mph - N/A   Clear
4:13 AM 12.2 °F -3.1 °F 3.2 °F 67% 30.25 in 10.0 mi NW 13.8 mph - N/A   Clear
4:34 AM 10.4 °F -5.4 °F 3.2 °F 73% 30.25 in 10.0 mi WNW 13.8 mph - N/A   Clear
4:53 AM 10.4 °F -2.4 °F 3.2 °F 73% 30.26 in 10.0 mi NW 9.2 mph 12.7 mph N/A   Clear
5:14 AM 10.4 °F -2.4 °F 3.2 °F 73% 30.27 in 10.0 mi WNW 9.2 mph - N/A   Clear
5:34 AM 10.4 °F -3.3 °F 3.2 °F 73% 30.28 in 10.0 mi West 10.4 mph - N/A   Clear
5:53 AM 10.4 °F -3.3 °F 3.2 °F 73% 30.28 in 10.0 mi West 10.4 mph - N/A   Clear
6:14 AM 10.4 °F -2.4 °F 3.2 °F 73% 30.29 in 10.0 mi West 9.2 mph - N/A   Clear
6:34 AM 10.4 °F -2.4 °F 3.2 °F 73% 30.29 in 10.0 mi West 9.2 mph - N/A   Clear
6:53 AM 10.4 °F -3.3 °F 3.2 °F 73% 30.30 in 10.0 mi WNW 10.4 mph - N/A   Clear
7:14 AM 8.6 °F -4.7 °F 1.4 °F 73% 30.31 in 10.0 mi West 9.2 mph - N/A   Clear
7:34 AM 8.6 °F -3.7 °F 1.4 °F 73% 30.32 in 10.0 mi WSW 8.1 mph - N/A   Clear
7:53 AM 8.6 °F -4.7 °F 1.4 °F 73% 30.32 in 10.0 mi West 9.2 mph - N/A   Scattered Clouds
8:14 AM 8.6 °F -5.5 °F 1.4 °F 73% 30.33 in 10.0 mi West 10.4 mph - N/A   Scattered Clouds
8:34 AM 8.6 °F -4.7 °F 1.4 °F 73% 30.34 in 10.0 mi West 9.2 mph - N/A   Clear
8:53 AM 8.6 °F -2.6 °F 1.4 °F 73% 30.35 in 10.0 mi WSW 6.9 mph - N/A   Clear
9:14 AM 8.6 °F -3.7 °F 1.4 °F 73% 30.35 in 10.0 mi West 8.1 mph - N/A   Clear
9:34 AM 8.6 °F -3.7 °F 1.4 °F 73% 30.36 in 10.0 mi West 8.1 mph - N/A   Clear
9:53 AM 10.4 °F -2.4 °F 1.4 °F 67% 30.36 in 10.0 mi West 9.2 mph - N/A   Clear
10:14 AM 10.4 °F -0.4 °F 1.4 °F 67% 30.37 in 10.0 mi West 6.9 mph - N/A   Clear
10:34 AM 10.4 °F -0.4 °F 1.4 °F 67% 30.36 in 10.0 mi WSW 6.9 mph - N/A   Clear
10:53 AM 12.2 °F -1.0 °F 3.2 °F 67% 30.37 in 10.0 mi West 10.4 mph - N/A   Clear
11:14 AM 12.2 °F -1.0 °F 3.2 °F 67% 30.36 in 10.0 mi WSW 10.4 mph - N/A   Clear
11:34 AM 12.2 °F -1.0 °F 3.2 °F 67% 30.36 in 10.0 mi West 10.4 mph - N/A   Clear
11:53 AM 14.0 °F -0.2 °F 3.2 °F 62% 30.36 in 10.0 mi West 12.7 mph - N/A   Clear
12:13 PM 14.0 °F 2.0 °F 3.2 °F 62% 30.36 in 10.0 mi West 9.2 mph - N/A   Clear
12:34 PM 15.8 °F 2.7 °F 5.0 °F 62% 30.36 in 10.0 mi West 11.5 mph - N/A   Clear
12:53 PM 15.8 °F 3.4 °F 5.0 °F 62% 30.36 in 10.0 mi WSW 10.4 mph - N/A   Clear
1:14 PM 15.8 °F 2.1 °F 6.8 °F 68% 30.35 in 10.0 mi WSW 12.7 mph - N/A   Clear
1:34 PM 15.8 °F 3.4 °F 6.8 °F 68% 30.35 in 10.0 mi WSW 10.4 mph - N/A   Clear
1:54 PM 17.6 °F 5.0 °F 6.8 °F 63% 30.35 in 10.0 mi West 11.5 mph - N/A   Clear
2:13 PM 17.6 °F 5.0 °F 6.8 °F 63% 30.34 in 10.0 mi WSW 11.5 mph - N/A   Clear
2:33 PM 17.6 °F 7.3 °F 6.8 °F 63% 30.34 in 10.0 mi WSW 8.1 mph - N/A   Clear
2:54 PM 17.6 °F 7.3 °F 6.8 °F 63% 30.34 in 10.0 mi WSW 8.1 mph - N/A   Clear
3:13 PM 17.6 °F 6.4 °F 6.8 °F 63% 30.34 in 10.0 mi West 9.2 mph - N/A   Clear
3:33 PM 19.4 °F 8.6 °F 6.8 °F 58% 30.35 in 10.0 mi WSW 9.2 mph - N/A   Clear
3:54 PM 19.4 °F 7.9 °F 5.0 °F 54% 30.35 in 10.0 mi West 10.4 mph - N/A   Clear
4:13 PM 19.4 °F 9.5 °F 5.0 °F 54% 30.34 in 10.0 mi West 8.1 mph - N/A   Clear
4:34 PM 17.6 °F 7.3 °F 5.0 °F 58% 30.34 in 10.0 mi SSW 8.1 mph - N/A   Clear
4:53 PM 17.6 °F 6.4 °F 6.8 °F 63% 30.35 in 10.0 mi SW 9.2 mph - N/A   Clear
5:13 PM 17.6 °F 6.4 °F 6.8 °F 63% 30.34 in 10.0 mi SW 9.2 mph - N/A   Clear
5:34 PM 15.8 °F 4.2 °F 6.8 °F 68% 30.35 in 10.0 mi SW 9.2 mph - N/A   Clear
5:53 PM 17.6 °F 6.4 °F 6.8 °F 63% 30.34 in 10.0 mi SW 9.2 mph - N/A   Clear
6:13 PM 17.6 °F 6.4 °F 6.8 °F 63% 30.34 in 10.0 mi SW 9.2 mph - N/A   Scattered Clouds
6:34 PM 17.6 °F 6.4 °F 6.8 °F 63% 30.35 in 10.0 mi SW 9.2 mph - N/A   Clear
6:53 PM 17.6 °F 5.7 °F 6.8 °F 63% 30.34 in 10.0 mi WSW 10.4 mph - N/A   Scattered Clouds
7:13 PM 17.6 °F 6.4 °F 6.8 °F 63% 30.34 in 10.0 mi SW 9.2 mph - N/A   Mostly Cloudy
7:34 PM 15.8 °F 5.1 °F 6.8 °F 68% 30.33 in 10.0 mi SSW 8.1 mph - N/A   Overcast
7:53 PM 15.8 °F 4.2 °F 6.8 °F 68% 30.33 in 10.0 mi SW 9.2 mph - N/A   Overcast
8:14 PM 15.8 °F 3.4 °F 6.8 °F 68% 30.32 in 10.0 mi SW 10.4 mph - N/A   Overcast
8:33 PM 15.8 °F 5.1 °F 6.8 °F 68% 30.31 in 10.0 mi SW 8.1 mph - N/A   Overcast
8:53 PM 15.8 °F 3.4 °F 6.8 °F 68% 30.30 in 10.0 mi SW 10.4 mph - N/A   Overcast
9:13 PM 15.8 °F 3.4 °F 6.8 °F 68% 30.29 in 10.0 mi SSW 10.4 mph - N/A   Overcast
9:33 PM 15.8 °F 3.4 °F 8.6 °F 73% 30.29 in 10.0 mi SW 10.4 mph - N/A   Overcast
9:53 PM 15.8 °F 4.2 °F 8.6 °F 73% 30.30 in 10.0 mi WSW 9.2 mph - N/A   Overcast
10:14 PM 15.8 °F 3.4 °F 8.6 °F 73% 30.29 in 10.0 mi SW 10.4 mph - N/A   Overcast
10:33 PM 15.8 °F 3.4 °F 8.6 °F 73% 30.29 in 10.0 mi SSW 10.4 mph - N/A   Overcast
10:53 PM 17.6 °F 5.7 °F 8.6 °F 68% 30.28 in 10.0 mi SSW 10.4 mph - N/A   Overcast
11:14 PM 17.6 °F 5.7 °F 10.4 °F 73% 30.28 in 10.0 mi SW 10.4 mph - N/A   Overcast
11:33 PM 17.6 °F 6.4 °F 8.6 °F 68% 30.27 in 10.0 mi SW 9.2 mph - N/A   Overcast
11:54 PM 17.6 °F 6.4 °F 10.4 °F 73% 30.26 in 10.0 mi SSW 9.2 mph - N/A   Overcast